Regional Weather Roundup
Issued by NWS

Home | Current Version | Previous Version | Text Only | Print | Product List | Glossary Off
Versions: 1 2 3 4 5 6 7 8 9 10 11 12 13 14 15 16 17 18 19 20 21 22 23 24 25 26 27 28 29 30 31 32 33 34 35 36 37 38 39 40 41 42 43 44 45 46 47 48 49 50

000
ASUS43 KOAX 131510
RWRNE

WEATHER ROUNDUP FOR NEBRASKA
NATIONAL WEATHER SERVICE OMAHA NE
1000 AM CDT SUN JUL 13 2014

NOTES: SATELLITE DATA IS BEING USED TO AUGMENT CLOUD COVER ABOVE
       12000 FEET.
       "FAIR" INDICATES FEW OR NO CLOUDS BELOW 12,000 FEET WITH NO
       SIGNIFICANT WEATHER AND/OR OBSTRUCTIONS TO VISIBILITY.

  * THESE STATIONS DO NOT REPORT WEATHER SUCH AS RAIN...SNOW OR FOG.

NEZ001>004-019>022-054>056-131600-
NEBRASKA PANHANDLE

CITY           SKY/WX    TMP DP  RH WIND       PRES   REMARKS
SCOTTSBLUFF    MOSUNNY   73  63  70 N3        30.27S
ALLIANCE       SUNNY     74  61  63 CALM      30.26S
CHADRON        MOSUNNY   74  60  61 E5        30.23S
KIMBALL        MOSUNNY   71  61  71 E5        30.32R
SIDNEY         SUNNY     77  59  53 CALM      30.30S
$$

NEZ057>060-069>072-079>082-131600-
SOUTHWEST NEBRASKA

CITY           SKY/WX    TMP DP  RH WIND       PRES   REMARKS
NORTH PLATTE   SUNNY     77  65  66 W6        30.19F
IMPERIAL       SUNNY     76  64  66 CALM      30.23R
LEXINGTON      SUNNY     76  68  76 NW5       30.17S
MCCOOK         MOSUNNY   79  67  66 N7        30.17F
OGALLALA       SUNNY     73  65  76 CALM      30.22F
$$

NEZ005>010-023>029-035>040-094-131600-
NORTH CENTRAL NEBRASKA

CITY           SKY/WX    TMP DP  RH WIND       PRES   REMARKS
VALENTINE      SUNNY     75  64  68 NW9       30.17R
AINSWORTH      SUNNY     75  65  69 NW9       30.16S
BROKEN BOW     SUNNY     77  69  76 SW7       30.16S
O`NEILL        SUNNY     76  65  68 W6        30.12F
ORD            SUNNY     77  67  71 W7        30.12F
THEDFORD       SUNNY     78  67  69 W7        30.20R
$$

NEZ041-046>049-061>064-073>077-083>087-131600-
SOUTH CENTRAL NEBRASKA

CITY           SKY/WX    TMP DP  RH WIND       PRES   REMARKS
GRAND ISLAND   SUNNY     79  69  71 W7        30.13F
AURORA         SUNNY     78  71  79 W5        30.12F
HASTINGS       SUNNY     76  64  66 W6        30.14S
HEBRON         SUNNY     79  69  71 N7        30.11S
HOLDREGE       SUNNY     76  68  76 W3        30.16F
KEARNEY *      SUNNY     77  66  69 NW6       30.15S
YORK           SUNNY     77  68  73 N3        30.11F
$$

NEZ011>018-030>034-042>045-131600-
NORTHEAST NEBRASKA

CITY           SKY/WX    TMP DP  RH WIND       PRES   REMARKS
NORFOLK        SUNNY     78  68  71 W8        30.09S
ALBION         SUNNY     78  67  69 W3        30.11S
BLAIR          SUNNY     77  66  69 W5        30.07S
FREMONT        SUNNY     78  70  76 W6        30.08S
TEKAMAH        SUNNY     80  69  69 W8        30.05F
WAYNE          SUNNY     78  69  74 NW7       30.08F
$$

NEZ050>053-065>068-078-088>093-131600-
SOUTHEAST NEBRASKA

CITY           SKY/WX    TMP DP  RH WIND       PRES   REMARKS
LINCOLN        SUNNY     82  67  60 NW5       30.09S
OMAHA EPPLEY   MOSUNNY   79  67  66 N5        30.06S
BEATRICE       SUNNY     75  69  80 N8        30.09S
FALLS CITY     MOSUNNY   77  69  76 N6        30.06R
NEBRASKA CITY  SUNNY     76  73  89 N6        30.08R
PLATTSMOUTH    SUNNY     77  68  72 N3        30.07S
$$

NEZ044-045-051>053-067-131600-
OMAHA AREA

CITY           SKY/WX    TMP DP  RH WIND       PRES   REMARKS
OMAHA EPPLEY   MOSUNNY   79  67  66 N5        30.06S
BLAIR          SUNNY     77  66  69 W5        30.07S
FREMONT        SUNNY     78  70  76 W6        30.08S
MILLARD        SUNNY     79  66  64 NW7       30.06S
OFFUTT AFB     SUNNY     79  73  80 W5        30.06S
PLATTSMOUTH    SUNNY     77  68  72 N3        30.07S
WAHOO          FAIR      80  69  68 NW6       30.08S
$$


USA.gov is the U.S. government's official web portal to all federal, state and local government web resources and services.